Showing default

DUCHIFAT 1, 40021

Orbit data source: Space-Track

DUCHIFAT 1, 40021 is a payload satellite owned by Herzliya (IL) in SSO that was launched on Thu, 19 Jun 2014 UTC via a DNEPR launch vehicle from the Orenburg, Russia (OREN). Payload-class satellites include a variety of spacecraft equipped with specific instruments for various scientific and technological missions. These include communications satellites like Starlink; space stations such as the ISS; scientific satellites like the Hubble; Earth observation satellites from companies like Planet Labs, Umbra, and HawkEye 360; GPS; miniature CubeSats for education and research; and military/defense satellites.

Loading next visibility...
Identifier
40021, 2014-033M
Orbit
SSO
Country
Flag of ILIL / ISRA
Related business
Manufacturer
Herzliya
Mission
Operational Amateur Technology
Bus & Motor
CUBESAT 1U, Unknown motor
Mass
1 kg wet, 1 kg dry
Launch date (UTC)
2014-06-19 (12 years ago)
Launch vehicle
DNEPR
Launch site
Orenburg, Russia (OREN)
Object type
Payload
Rocket body
Debris
Shape & HBR
Box + 4 Ant, 0.3 m
Radar Cross Section
0.046 m², Medium (>0.1 m² and < 1m²)

Expand to show TLE details & history
Last TLE update: 2 days ago

TLE from 2 days ago
0 DUCHIFAT 1
1 40021U 14033M   26171.41075191  .00097960  00000-0  98362-3 0  9995
2 40021  98.0451 231.0257 0002464 112.8705 247.2812 15.65166086656250
Epoch: 2026-06-20T09:51Z
TLE epoch observation values (Epoch: 2026-06-20T09:51:28.965Z)
Latitude
-0.00009°
Longitude
174.52926°
Altitude
376.536 km
Speed
7.683 km/s
True Right ascension
15h 24m 06s
True Declination
0° 00' 00"
Sunlit
Object was in full shadow at epoch
Visualization orbit readout
Latitude
Unknown
Longitude
Unknown
Altitude
Unknown
Speed
Unknown
Apparent Right ascension
Unknown
Apparent Declination
Unknown
Sunlit
N/A
Visualization observer readout
Local Sidereal Time
00:55:51
Azimuth
Unknown
Elevation
Unknown
Doppler factor
Unknown
Orbital elements
Apogee altitude
371.359 km
Perigee altitude
368.033 km
Semi-major axis
6,747.833 km
Eccentricity
0.00025
Inclination
98.0451°
RAAN
231.0257°
Arg. of periapsis
112.8705°
True anomaly
247.25516°
Mean anomaly
247.2812°
Eccentric anomaly
247.26818°
Mean motion
3.91559 °/min
Orbital period
91.94 mins
BSTAR
0.00098362
Loading maneuver chart data...
Computing Atmospheric mass density...
Loading historical data...
Loading historical data...
Loading historical data...
Loading historical data...
Loading historical data...
Loading historical data...
Loading historical data...

Documentation

Showing up to 5 results
|